Location: ?????
(55.6500°N, 37.2500°E)
Time: 13:13:55
(UTC+00:00)

USA 59 Rocket - Pass Details

Date: 19 May 2025
Orbit: 373 x 1695 km, 63.3° (Epoch: 19 June)

Event Time Altitude Azimuth Distance (km) Brightness Sun altitude
Exits shadow 22:10:08 - 256° (WSW) 1,718 2.1 -13.8°
Reaches altitude 10° 22:10:49 10° 260° (W) 1,428 1.7 -13.8°
Maximum altitude 22:13:42 40° 332° (NNW) 578 0.4 -13.7°
Drops below altitude 10° 22:16:33 10° 44° (NE) 1,414 2.8 -13.7°
Sets 22:18:43 0° 53° (NE) 2,332 3.9 -13.6°
